Weather History for Lafayette, LA

Change the Weather History Date:

Thursday, May 15, 2014

  Actual Average Record
Temperature  
Mean Temperature 62 °F 76 °F  
Max Temperature 74 °F 86 °F 95 °F (1933)
Min Temperature 50 °F 67 °F 48 °F (1917)
Degree Days  
Heating Degree Days 3    
Cooling Degree Days 0 12  
Month to date cooling degree days 114 148  
Year to date cooling degree days 294 402  
Growing Degree Days 12 (Base 50)    
Moisture  
Dew Point 46 °F    
Average Humidity 57    
Maximum Humidity 84    
Minimum Humidity 29    
Precipitation  
Precipitation 0.00 in 0.14 in 4.17 in (1946)
Month to date precipitation 1.82 2.19  
Year to date precipitation 13.83 20.03  
Sea Level Pressure  
Sea Level Pressure 30.21 in    
Wind  
Wind Speed 8 mph (North)    
Max Wind Speed 20 mph    
Max Gust Speed 24 mph    
Visibility 10 miles    
Events      
T = Trace of Precipitation, MM = Missing Value Source: NWS Daily Summary

Daily Weather History Graph

Daily Weather History Graph

Search for Another Location

Airport:

Trip Planner

Search our weather history database for the weather conditions in past years. The results will help you decide how hot, cold, wet, or windy it might be!

Date:

Astronomy

May. 15, 2014 Rise Set
Actual Time 6:14 AM CDT 7:54 PM CDT
Civil Twilight 5:47 AM CDT 8:21 PM CDT
Nautical Twilight 5:16 AM CDT 8:52 PM CDT
Astronomical Twilight 4:43 AM CDT 9:25 PM CDT
Moon 9:03 PM CDT (5/15) 7:00 AM CDT (5/15)
Length of Visible Light 14h 33m
Length of Day
13h 40m
Full, 99% of the Moon is Illuminated
May 15
Full
May 21
Last Quarter
May 28
New
Jun 5
First Quarter
Jun 12
Full

Hourly Weather History & Observations

Time (CDT) Temp. Dew Point Humidity Pressure Visibility Wind Dir Wind Speed Gust Speed Precip Events Conditions
12:53 AM 55.9 °F 48.9 °F 77% 30.19 in 10.0 mi NNW 12.7 mph - N/A   Clear
1:53 AM 55.0 °F 46.9 °F 74% 30.19 in 10.0 mi North 11.5 mph - N/A   Clear
2:53 AM 53.1 °F 46.9 °F 80% 30.18 in 10.0 mi NNW 8.1 mph - N/A   Clear
3:53 AM 52.0 °F 46.9 °F 83% 30.19 in 10.0 mi NNW 8.1 mph - N/A   Clear
4:53 AM 51.1 °F 46.9 °F 86% 30.19 in 10.0 mi NNW 9.2 mph - N/A   Clear
5:53 AM 51.1 °F 46.9 °F 86% 30.20 in 10.0 mi NNW 9.2 mph - N/A   Clear
6:53 AM 51.1 °F 46.9 °F 86% 30.22 in 10.0 mi NNW 10.4 mph - N/A   Clear
7:53 AM 54.0 °F 46.0 °F 75% 30.24 in 10.0 mi North 10.4 mph - N/A   Clear
8:53 AM 57.9 °F 43.0 °F 58% 30.25 in 10.0 mi North 15.0 mph - N/A   Clear
9:53 AM 62.1 °F 41.0 °F 46% 30.27 in 10.0 mi NNE 13.8 mph 21.9 mph N/A   Clear
10:53 AM 64.9 °F 39.0 °F 39% 30.27 in 10.0 mi North 15.0 mph 23.0 mph N/A   Clear
11:53 AM 66.9 °F 41.0 °F 39% 30.27 in 10.0 mi North 9.2 mph 21.9 mph N/A   Clear
12:53 PM 70.0 °F 42.1 °F 36% 30.26 in 10.0 mi North 12.7 mph - N/A   Clear
2:53 PM 73.0 °F 42.1 °F 33% 30.22 in 10.0 mi North 11.5 mph 18.4 mph N/A   Clear
3:53 PM 73.0 °F 43.0 °F 34% 30.20 in 10.0 mi Variable 5.8 mph 18.4 mph N/A   Clear
4:53 PM 73.0 °F 39.9 °F 30% 30.18 in 10.0 mi North 9.2 mph - N/A   Clear
5:53 PM 73.0 °F 41.0 °F 31% 30.17 in 10.0 mi NNE 6.9 mph - N/A   Clear
6:53 PM 72.0 °F 42.1 °F 34% 30.16 in 10.0 mi NNE 6.9 mph - N/A   Clear
7:53 PM 66.9 °F 51.1 °F 57% 30.17 in 10.0 mi Calm Calm - N/A   Clear
8:53 PM 63.0 °F 57.0 °F 81% 30.17 in 10.0 mi SSE 3.5 mph - N/A   Clear
9:53 PM 62.1 °F 55.9 °F 80% 30.20 in 10.0 mi Calm Calm - N/A   Clear
10:53 PM 60.1 °F 55.9 °F 86% 30.22 in 10.0 mi Calm Calm - N/A   Clear
11:53 PM 59.0 °F 53.1 °F 81% 30.21 in 10.0 mi Calm Calm - N/A   Clear